Location: Oregon Trail
(41.1872°N, 102.0741°W)
Time: 05:17:40
(UTC+00:00)

Cosmos 2360 Rocket - Pass Details

Date: 19 November 2019
Orbit: 832 x 847 km, 71.0° (Epoch: 09 December)

Event Time Altitude Azimuth Distance (km) Brightness Sun altitude
Exits shadow 12:48:49 - 331° (NNW) 3,167 4.8 -9.9°
Reaches altitude 10° 12:50:39 10° 327° (NNW) 2,477 4.2 -9.6°
Maximum altitude 12:56:11 54° 252° (WSW) 1,020 2.4 -8.6°
Drops below altitude 10° 13:01:40 10° 176° (S) 2,457 4.9 -7.6°
Sets 13:04:08 0° 172° (S) 3,387 5.7 -7.2°
